Content
SEND FEEDBACK

Daily
Averages
Monthly
Summary
United States of America

MAURICEVILLE, TEXAS


Home > North America > United States > Texas
Elevation: 20 feet     Latitude: 30 14N     Longitude: 093 44W

WEATHER
 
SELECT A DAY
Number of Records: 115,998;   Date Range: 8/25/05 - 10/30/14
 
SHARE

PRINT THIS DATA

[ ← Previous Day ]
WEATHER ALMANAC - JUNE 18, 2013
[ Next Day → ]
[ °C ]   °F
We're sorry. There is no daily almanac available for Mauriceville, Texas on June 18, 2013.
WEATHER BY HOUR - JUNE 18, 2013
[ °C ]   °F
Local TimeTemperatureDewpointHumidityBarometerVisibilityWind DirectionWind SpeedGust SpeedPrecipitationEventsConditions
12:35 AM81.0 °F74.8 °F82 %29.97 in10.0 miSSW (200°)8.1 mphClear
12:55 AM81.0 °F74.8 °F82 %29.95 in10.0 miSouth (190°)10.4 mphClear
1:15 AM80.8 °F74.8 °F82 %29.96 in10.0 miSSW (210°)9.2 mphScattered Clouds
1:35 AM80.8 °F74.7 °F82 %29.96 in10.0 miSSW (200°)10.4 mphClear
1:55 AM80.1 °F74.7 °F83 %29.95 in10.0 miSSW (200°)6.9 mphClear
2:15 AM80.1 °F74.8 °F84 %29.96 in10.0 miSSW (210°)4.6 mphMostly Cloudy
2:35 AM79.9 °F74.7 °F84 %29.96 in10.0 miSSW (210°)5.8 mphMostly Cloudy
2:55 AM79.3 °F74.7 °F86 %29.97 in10.0 miSSW (210°)3.5 mphMostly Cloudy
3:15 AM79.7 °F74.7 °F84 %29.96 in10.0 miSW (220°)3.5 mphMostly Cloudy
3:35 AM79.2 °F74.7 °F86 %29.96 in10.0 miCalmMostly Cloudy
3:55 AM78.6 °F74.3 °F87 %29.95 in10.0 miSSW (210°)5.8 mphScattered Clouds
4:15 AM78.4 °F73.9 °F86 %29.96 in10.0 miSSW (210°)4.6 mphClear
4:35 AM77.7 °F73.6 °F87 %29.96 in10.0 miSSW (210°)4.6 mphClear
4:55 AM77.9 °F73.6 °F86 %29.95 in10.0 miSSW (210°)3.5 mphClear
5:15 AM77.4 °F73.6 °F88 %29.95 in10.0 miSSW (210°)5.8 mphClear
5:35 AM77.5 °F73.8 °F88 %29.95 in10.0 miSW (220°)5.8 mphClear
5:55 AM78.1 °F74.1 °F88 %29.95 in10.0 miCalmClear
6:15 AM78.6 °F74.3 °F87 %29.97 in10.0 miCalmClear
6:35 AM78.1 °F74.3 °F88 %29.97 in10.0 miCalmClear
6:55 AM79.2 °F74.3 °F85 %29.98 in10.0 miSW (220°)5.8 mphClear
7:15 AM79.7 °F74.7 °F84 %29.98 in10.0 miSSW (210°)6.9 mphClear
7:35 AM80.6 °F74.8 °F83 %29.99 in10.0 miSW (230°)5.8 mphClear
7:55 AM81.5 °F75.2 °F81 %30.00 in10.0 miSW (220°)5.8 mphClear
8:15 AM82.6 °F75.4 °F79 %30.00 in10.0 miSW (230°)4.6 mphClear
8:35 AM83.7 °F74.5 °F74 %29.99 in10.0 miSW (220°)10.4 mphClear
8:55 AM83.7 °F74.1 °F73 %30.00 in10.0 miSW (220°)8.1 mphScattered Clouds
9:15 AM84.6 °F75.0 °F73 %30.00 in10.0 miSW (230°)10.4 mph16.1 mphMostly Cloudy
9:35 AM84.2 °F73.8 °F71 %30.00 in10.0 miSW (220°)9.2 mphMostly Cloudy
9:55 AM84.2 °F74.5 °F72 %30.01 in10.0 miWSW (240°)8.1 mphMostly Cloudy
10:15 AM86.0 °F74.5 °F68 %30.01 in10.0 miWSW (240°)6.9 mphScattered Clouds
10:35 AM84.6 °F73.6 °F69 %30.00 in10.0 miWSW (250°)8.1 mphMostly Cloudy
10:55 AM83.5 °F70.7 °F65 %30.00 in10.0 miWSW (240°)6.9 mphMostly Cloudy
11:15 AM85.8 °F72.5 °F64 %30.00 in10.0 miWSW (240°)5.8 mphMostly Cloudy
11:35 AM86.9 °F73.6 °F64 %29.99 in10.0 miWest (260°)5.8 mphScattered Clouds
11:55 AM86.2 °F74.3 °F68 %29.99 in10.0 miWest (260°)5.8 mphMostly Cloudy
12:15 PM86.4 °F74.5 °F68 %29.99 in10.0 miWSW (240°)4.6 mphMostly Cloudy
12:35 PM86.9 °F73.2 °F64 %29.99 in10.0 miSouth (190°)10.4 mph16.1 mphScattered Clouds
12:55 PM87.1 °F74.1 °F65 %29.99 in10.0 miSSW (200°)12.7 mph19.6 mphScattered Clouds
1:15 PM86.2 °F72.5 °F64 %29.98 in10.0 miSouth (180°)11.5 mphThunderstormScattered Clouds
1:35 PM86.2 °F73.8 °F66 %29.98 in10.0 miSouth (180°)11.5 mphMostly Cloudy
1:55 PM84.9 °F73.8 °F69 %29.99 in10.0 miSouth (190°)8.1 mphMostly Cloudy
2:15 PM84.6 °F72.9 °F68 %29.98 in10.0 miSouth (180°)9.2 mphOvercast
2:35 PM86.9 °F71.8 °F61 %29.97 in10.0 miSouth (190°)9.2 mphMostly Cloudy
2:55 PM85.8 °F72.1 °F63 %29.96 in10.0 miSouth (190°)8.1 mphMostly Cloudy
3:15 PM87.4 °F73.9 °F64 %29.95 in10.0 miSouth (180°)8.1 mph18.4 mphMostly Cloudy
3:35 PM88.0 °F72.9 °F61 %29.94 in10.0 miSouth (180°)12.7 mph16.1 mphClear
3:55 PM87.6 °F72.5 °F61 %29.93 in10.0 miSW (220°)10.4 mphScattered Clouds
4:15 PM87.6 °F73.0 °F62 %29.93 in10.0 miSouth (170°)10.4 mphScattered Clouds
4:35 PM87.8 °F73.9 °F63 %29.93 in10.0 miSouth (170°)10.4 mphScattered Clouds
4:55 PM87.6 °F73.2 °F62 %29.92 in10.0 miSSW (200°)9.2 mphMostly Cloudy
5:15 PM88.9 °F73.2 °F60 %29.92 in10.0 miSW (220°)9.2 mph16.1 mphScattered Clouds
5:35 PM88.5 °F73.0 °F60 %29.92 in10.0 miSW (230°)6.9 mphScattered Clouds
5:55 PM88.2 °F73.4 °F61 %29.91 in10.0 miSW (220°)5.8 mphScattered Clouds
6:15 PM87.3 °F72.7 °F62 %29.92 in10.0 miSSW (210°)9.2 mphScattered Clouds
6:35 PM85.8 °F72.5 °F64 %29.93 in10.0 miSSW (210°)8.1 mphThunderstormMostly Cloudy
6:55 PM78.3 °F69.8 °F75 %29.97 in10.0 miNW (320°)16.1 mph27.6 mphThunderstormOvercast
7:15 PM73.4 °F70.7 °F91 %29.96 in7.0 miNorth (350°)9.2 mph16.1 mphRainLight Rain
7:35 PM72.9 °F69.8 °F90 %29.96 in10.0 miNorth (360°)6.9 mphScattered Clouds
7:55 PM72.7 °F69.8 °F91 %29.96 in10.0 miCalmClear
8:15 PM72.9 °F70.0 °F91 %29.97 in10.0 miNorth (350°)3.5 mphClear
8:35 PM72.7 °F70.7 °F93 %29.98 in10.0 miCalm0.01 inRainLight Rain
8:55 PM72.9 °F71.1 °F94 %29.99 in10.0 miCalm0.01 inRainRain
9:15 PM73.0 °F71.2 °F94 %29.99 in10.0 miCalmLight Drizzle
9:35 PM73.0 °F71.1 °F93 %29.98 in10.0 miCalm0.01 inRainLight Rain
9:55 PM73.0 °F70.9 °F93 %29.99 in10.0 miCalm0.01 inScattered Clouds
10:15 PM73.4 °F70.7 °F91 %29.99 in10.0 miCalmScattered Clouds
10:35 PM73.6 °F70.7 °F91 %29.98 in10.0 miCalmClear
10:55 PM73.9 °F71.1 °F91 %29.98 in10.0 miCalmClear
11:15 PM73.6 °F71.6 °F93 %29.98 in10.0 miCalmClear
11:35 PM73.4 °F71.1 °F92 %29.98 in10.0 miCalmClear
11:55 PM73.0 °F71.6 °F95 %29.98 in10.0 miCalmClear
Hourly data recorded from KORG, located miles away from Mauriceville, Texas







STORIES FROM OUR PARTNERS